Home > Weather > Birmingham > Past weeks

Flag for United Kingdom Weather for the Past 2 Weeks in Birmingham, England, United Kingdom

Now
43 °F

Scattered clouds.


Feels Like: 36 °F
Forecast: N/A
Wind: 12 mph from West

Location: Birmingham / Airport

Current Time: Feb 9, 2016 at 4:15:53 PM

Latest Report: Feb 9, 2016 at 3:20 PM


Visibility: N/A

Pressure: 29.03 "Hg

Humidity: 61%

Dew point: 30 °F

Location of BirminghamLocation

Historic Weather in Birmingham — Graph

°F

Birmingham Temperature Yesterday

Maximum temperature yesterday: 46 °F (at 12:20 PM)
Minimum temperature yesterday: 41 °F (at 4:20 AM)
Average temperature yesterday: 44 °F

High & Low Weather Summary for the Past Weeks

 TemperatureHumidityPressure
High57 °F (Jan 25, 2:50 PM)100% (Jan 26, 1:20 AM)30.33 "Hg (Jan 26, 1:20 AM)
Low36 °F (Jan 28, 7:20 AM)53% (Feb 2, 12:20 PM)28.82 "Hg (Feb 8, 8:20 AM)
Average46 °F85%29.72 "Hg
* Reported Jan 25 2:20 PM — Feb 9 2:20 PM, Birmingham, Weather by CustomWeather, © 2016

Note: Actual official high and low records may vary slightly from our data, if they occured in-between our weather recording intervals... More about our weather records

Advertising

Birmingham Weather History for the Previous 24 Hours

 ConditionsComfort  
Time TempWeatherWind HumidityBarometerVisibility
2:20 PM
Tue, Feb 9
45 °FScattered clouds.15 mph57%29.03 "HgN/A
1:50 PM45 °FScattered clouds.14 mph61%29.03 "HgN/A
1:20 PM45 °FPartly sunny.14 mph66%29.03 "HgN/A
12:50 PM43 °FScattered clouds.14 mph71%29.03 "HgN/A
12:20 PM43 °FScattered clouds.12 mph66%29.03 "HgN/A
11:50 AM41 °FScattered clouds.8 mph76%29.06 "HgN/A
11:20 AM41 °FPassing clouds.9 mph76%29.06 "HgN/A
10:20 AM37 °FPassing clouds.6 mph93%29.06 "HgN/A
9:20 AM36 °FPassing clouds.8 mph100%29.06 "HgN/A
8:50 AM36 °FSunny.7 mph100%29.06 "Hg10 mi
8:20 AM36 °FPassing clouds.6 mph100%29.09 "HgN/A
7:50 AM36 °FScattered clouds.7 mph100%29.09 "HgN/A
7:20 AM36 °FPassing clouds.3 mph93%29.09 "HgN/A
6:50 AM36 °FPassing clouds.5 mph100%29.12 "HgN/A
6:20 AM36 °FPassing clouds.5 mph93%29.12 "HgN/A
5:50 AM36 °FPassing clouds.6 mph93%29.12 "HgN/A
5:20 AM37 °FPassing clouds.8 mph87%29.15 "HgN/A
4:50 AM36 °FPassing clouds.5 mph93%29.15 "HgN/A
4:20 AM36 °FClear.6 mph93%29.18 "Hg10 mi
3:50 AM36 °FClear.7 mph93%29.18 "Hg10 mi
3:20 AM37 °FPassing clouds.7 mph87%29.18 "HgN/A
2:50 AM37 °FPassing clouds.7 mph87%29.21 "HgN/A
2:20 AM39 °FChilly.10 mph81%29.21 "HgN/A
1:20 AM41 °FPassing clouds.12 mph76%29.24 "HgN/A
12:50 AM41 °FPassing clouds.10 mph76%29.24 "HgN/A
12:20 AM41 °FPassing clouds.10 mph76%29.24 "HgN/A
11:50 PM
Mon, Feb 8
41 °FPassing clouds.10 mph76%29.24 "HgN/A
11:20 PM41 °FPassing clouds.8 mph76%29.24 "HgN/A
10:20 PM43 °FPassing clouds.12 mph76%29.24 "HgN/A
9:50 PM43 °FPassing clouds.12 mph76%29.24 "HgN/A
9:20 PM43 °FPassing clouds.16 mph81%29.24 "HgN/A
8:50 PM45 °FPassing clouds.12 mph76%29.21 "HgN/A
8:20 PM45 °FPassing clouds.15 mph81%29.21 "HgN/A
7:50 PM45 °FPassing clouds.16 mph76%29.21 "HgN/A
7:20 PM45 °FPassing clouds.17 mph81%29.18 "HgN/A
6:50 PM46 °FPassing clouds.18 mph76%29.18 "HgN/A
6:20 PM45 °FPassing clouds.17 mph87%29.15 "HgN/A
5:50 PM46 °FPassing clouds.20 mph82%29.12 "HgN/A
5:20 PM46 °FPartly cloudy.21 mph82%29.09 "HgN/A
4:50 PM45 °FDrizzle. Partly sunny.15 mph93%29.06 "HgN/A
4:20 PM46 °FDrizzle. Broken clouds.20 mph82%29.03 "HgN/A
Weather by CustomWeather, © 2016

See weather overviewHow to use our weather pages